Date String (YYYY-MM-DD hh:mm:ss) UTC,Instrument flags,Ambient pressure (hPa),Sample flow (lpm),Bypass flow (lpm),Sample temperature (°C),Ambient temperature (°C),ASC tube jacket temperature (°C),LED temperature (°C),Box temperature (°C),Sample RH (%),Span deviation,Mass concentration (μg/m³),Mass concentration (μg/m³),Mass concentration (μg/m³)
DateTimeUTC,F1_M11,P_M11,Q1_M11,Q2_M11,T1_M11,T2_M11,T3_M11,T4_M11,T5_M11,U1_M11,ZSPAN_M11,X0_M11,X2_M11,X1_M11
2022-06-04 15:00:00,,0822.0,5.00,0.00,29.0,28.1,00.0,37.8,30.9,23.4,0000.0,0010.45,0004.11,0003.45
2022-06-04 15:01:00,,0822.0,4.99,0.00,29.0,28.1,00.0,37.8,30.9,24.1,0000.0,0010.15,0004.10,0003.45
2022-06-04 15:02:00,,0822.0,5.00,0.00,29.0,28.1,00.0,37.8,30.9,22.8,0000.0,0009.21,0004.10,0003.46
2022-06-04 15:03:00,,0822.0,5.01,0.00,29.0,28.1,00.0,37.8,30.9,22.8,0000.0,0008.92,0004.10,0003.45
2022-06-04 15:04:00,,0822.0,5.00,0.00,29.0,28.1,00.0,37.8,30.9,23.8,0000.0,0008.44,0004.06,0003.44
2022-06-04 15:05:00,,0822.0,4.99,0.00,29.0,28.1,00.0,37.8,30.9,24.0,0000.0,0008.12,0004.03,0003.43
2022-06-04 15:06:00,,0822.0,5.00,0.00,29.0,28.1,00.0,37.8,30.9,24.5,0000.0,0008.79,0004.01,0003.42
2022-06-04 15:07:00,,0822.0,5.00,0.00,29.0,28.1,00.0,37.9,31.0,25.4,0000.0,0008.86,0004.01,0003.42
2022-06-04 15:08:00,,0822.0,5.01,0.00,29.0,28.1,00.0,37.9,31.0,24.1,0000.0,0009.22,0004.00,0003.41
2022-06-04 15:09:00,,0822.0,5.00,0.00,29.1,28.2,00.0,37.9,31.0,21.5,0000.0,0009.51,0004.01,0003.39
2022-06-04 15:10:00,,0822.0,5.01,0.00,29.1,28.2,00.0,37.9,31.0,23.2,0000.0,0009.52,0004.03,0003.37
2022-06-04 15:11:00,,0822.0,5.00,0.00,29.1,28.2,00.0,37.9,31.0,23.7,0000.0,0009.56,0004.05,0003.38
2022-06-04 15:12:00,,0822.0,5.00,0.00,29.1,28.2,00.0,37.9,31.0,23.9,0000.0,0009.58,0004.06,0003.39
2022-06-04 15:13:00,,0822.0,5.00,0.00,29.1,28.2,00.0,37.9,31.0,23.7,0000.0,0009.68,0004.07,0003.39
2022-06-04 15:14:00,,0822.0,5.00,0.00,29.1,28.2,00.0,37.9,31.0,23.7,0000.0,0009.69,0004.08,0003.40
2022-06-04 15:15:00,,0822.0,5.01,0.00,29.1,28.2,00.0,37.9,31.0,24.3,0000.0,0009.59,0004.07,0003.41
2022-06-04 15:16:00,,0822.0,4.99,0.00,29.1,28.3,00.0,37.9,31.1,23.2,0000.0,0009.84,0004.10,0003.42
2022-06-04 15:17:00,,0822.0,5.00,0.00,29.1,28.3,00.0,38.0,31.1,22.5,0000.0,0009.44,0004.11,0003.43
2022-06-04 15:18:00,,0822.0,4.98,0.00,29.2,28.3,00.0,38.0,31.1,23.3,0000.0,0009.63,0004.13,0003.43
2022-06-04 15:19:00,,0822.0,5.02,0.00,29.2,28.3,00.0,38.0,31.1,23.5,0000.0,0009.27,0004.14,0003.45
2022-06-04 15:20:00,,0822.0,5.00,0.00,29.2,28.3,00.0,38.0,31.1,23.9,0000.0,0009.47,0004.14,0003.47
2022-06-04 15:21:00,,0822.0,5.00,0.00,29.2,28.3,00.0,38.0,31.1,23.9,0000.0,0009.42,0004.13,0003.49
2022-06-04 15:22:00,,0822.0,4.99,0.00,29.2,28.4,00.0,38.0,31.2,23.9,0000.0,0009.81,0004.13,0003.48
2022-06-04 15:23:00,,0822.0,5.00,0.00,29.2,28.4,00.0,38.0,31.1,22.5,0000.0,0010.60,0004.16,0003.48
2022-06-04 15:24:00,,0822.0,5.01,0.00,29.2,28.4,00.0,38.0,31.2,23.7,0000.0,0010.67,0004.14,0003.48
2022-06-04 15:25:00,,0822.0,5.00,0.00,29.3,28.4,00.0,38.1,31.2,23.2,0000.0,0010.67,0004.13,0003.47
2022-06-04 15:26:00,,0822.0,4.99,0.00,29.3,28.4,00.0,38.1,31.2,22.9,0000.0,0010.76,0004.13,0003.46
2022-06-04 15:27:00,,0822.0,5.00,0.00,29.3,28.4,00.0,38.1,31.2,22.9,0000.0,0010.56,0004.12,0003.45
2022-06-04 15:28:00,,0822.0,5.00,0.00,29.3,28.4,00.0,38.1,31.2,22.1,0000.0,0010.42,0004.12,0003.45
2022-06-04 15:29:00,,0822.0,5.00,0.00,29.3,28.5,00.0,38.1,31.2,22.4,0000.0,0010.28,0004.15,0003.46
2022-06-04 15:30:00,,0822.0,5.01,0.00,29.3,28.5,00.0,38.1,31.2,21.8,0000.0,0010.49,0004.12,0003.44
2022-06-04 15:31:00,,0822.0,5.00,0.00,29.3,28.5,00.0,38.1,31.2,22.4,0000.0,0010.41,0004.15,0003.43
2022-06-04 15:32:00,,0822.0,5.00,0.00,29.4,28.5,00.0,38.2,31.3,21.5,0000.0,0010.28,0004.12,0003.42
2022-06-04 15:33:00,,0822.0,5.01,0.00,29.4,28.5,00.0,38.2,31.3,22.1,0000.0,0010.75,0004.12,0003.42
2022-06-04 15:34:00,,0822.0,5.00,0.00,29.4,28.5,00.0,38.2,31.3,22.0,0000.0,0010.38,0004.11,0003.41
2022-06-04 15:35:00,,0821.9,5.01,0.00,29.4,28.5,00.0,38.2,31.3,20.7,0000.0,0010.39,0004.10,0003.41
2022-06-04 15:36:00,,0822.0,5.00,0.00,29.4,28.5,00.0,38.2,31.3,21.5,0000.0,0010.90,0004.12,0003.40
2022-06-04 15:37:00,,0821.9,4.99,0.00,29.4,28.5,00.0,38.2,31.3,21.5,0000.0,0011.12,0004.10,0003.40
2022-06-04 15:38:00,,0821.9,5.00,0.00,29.4,28.6,00.0,38.2,31.3,20.9,0000.0,0011.18,0004.11,0003.39
2022-06-04 15:39:00,,0821.8,4.99,0.00,29.4,28.6,00.0,38.2,31.3,21.3,0000.0,0011.12,0004.12,0003.39
2022-06-04 15:40:00,,0821.8,5.01,0.00,29.4,28.6,00.0,38.3,31.3,22.0,0000.0,0011.10,0004.09,0003.37
2022-06-04 15:41:00,,0821.9,5.00,0.00,29.5,28.6,00.0,38.3,31.4,21.5,0000.0,0010.61,0004.09,0003.37
2022-06-04 15:42:00,,0822.0,5.00,0.00,29.5,28.6,00.0,38.3,31.4,21.3,0000.0,0010.31,0004.08,0003.36
2022-06-04 15:43:00,,0821.8,5.00,0.00,29.5,28.6,00.0,38.3,31.4,22.3,0000.0,0010.14,0004.10,0003.37
2022-06-04 15:44:00,,0822.0,4.99,0.00,29.5,28.6,00.0,38.3,31.4,22.0,0000.0,0009.45,0004.12,0003.39
2022-06-04 15:45:00,,0822.1,5.00,0.00,29.5,28.7,00.0,38.3,31.4,22.1,0000.0,0009.25,0004.11,0003.41
2022-06-04 15:46:00,,0821.9,4.99,0.00,29.5,28.7,00.0,38.3,31.4,23.5,0000.0,0008.98,0004.10,0003.41
2022-06-04 15:47:00,,0821.9,5.01,0.00,29.5,28.7,00.0,38.3,31.4,22.9,0000.0,0008.44,0004.09,0003.42
2022-06-04 15:48:00,,0821.9,4.99,0.00,29.6,28.7,00.0,38.4,31.5,21.1,0000.0,0008.00,0004.07,0003.43
2022-06-04 15:49:00,,0821.7,4.99,0.00,29.6,28.7,00.0,38.4,31.5,22.4,0000.0,0008.02,0004.11,0003.45
2022-06-04 15:50:00,,0821.8,5.01,0.00,29.6,28.7,00.0,38.4,31.5,21.5,0000.0,0008.18,0004.10,0003.46
2022-06-04 15:51:00,,0821.8,5.01,0.00,29.6,28.7,00.0,38.4,31.5,22.5,0000.0,0008.84,0004.13,0003.47
2022-06-04 15:52:00,,0821.8,5.00,0.00,29.6,28.8,00.0,38.4,31.5,21.9,0000.0,0008.86,0004.17,0003.48
2022-06-04 15:53:00,,0821.8,5.01,0.00,29.6,28.8,00.0,38.4,31.5,23.3,0000.0,0008.69,0004.17,0003.49
2022-06-04 15:54:00,,0821.8,5.02,0.00,29.6,28.8,00.0,38.4,31.5,22.3,0000.0,0009.71,0004.20,0003.49
2022-06-04 15:55:00,,0821.8,5.01,0.00,29.7,28.8,00.0,38.4,31.6,20.8,0000.0,0009.92,0004.23,0003.48
2022-06-04 15:56:00,,0821.8,4.99,0.00,29.7,28.8,00.0,38.5,31.6,20.5,0000.0,0009.86,0004.22,0003.46
2022-06-04 15:57:00,,0821.8,4.99,0.00,29.7,28.8,00.0,38.5,31.6,20.1,0000.0,0010.05,0004.28,0003.45
2022-06-04 15:58:00,,0821.8,5.01,0.00,29.7,28.8,00.0,38.5,31.6,20.7,0000.0,0010.15,0004.29,0003.44
2022-06-04 15:59:00,,0821.8,5.01,0.00,29.7,28.9,00.0,38.5,31.6,21.5,0000.0,0010.54,0004.31,0003.44
